Location: Bartshausen
(51.8454°N, 9.8167°E)
Time: 10:07:30
(UTC+00:00)

PAYLOAD A - Pass Details

Date: 08 November 2025
Orbit: 690 x 828 km, 98.6° (Epoch: 11 December)

Event Time Altitude Azimuth Distance (km) Brightness Sun altitude
Rises 04:07:06 0° 13° (NNE) 3,385 7.5 -21.8°
Reaches altitude 10° 04:09:29 10° 11° (N) 2,446 6.7 -21.5°
Maximum altitude 04:14:52 68° 290° (WNW) 887 4.0 -20.6°
Drops below altitude 10° 04:20:09 10° 208° (SSW) 2,388 6.3 -19.8°
Enters shadow 04:20:30 - 208° (SSW) 2,525 6.4 -19.8°
